Time,TemperatureF,DewpointF,PressureIn,WindDirection,WindDirectionDegrees,WindSpeedMPH,WindSpeedGustMPH,Humidity,HourlyPrecipIn,Conditions,Clouds,dailyrainin,SoftwareType,DateUTC
2013-05-12 00:03:00,-999.0,-99.9,29.78,NNW,332,0.0,2.0,96,0.00,,,0.27,,2013-05-12 04:03:00,
2013-05-12 00:12:00,62.0,61.0,29.78,NNW,332,0.0,2.0,96,0.00,,,0.27,,2013-05-12 04:12:00,
2013-05-12 00:22:00,62.0,61.0,29.77,NNW,332,0.0,0.0,96,0.00,,,0.27,,2013-05-12 04:22:00,
2013-05-12 00:33:00,62.0,61.0,29.77,NNW,332,0.0,0.0,96,0.00,,,0.27,,2013-05-12 04:33:00,
2013-05-12 00:43:00,62.0,61.0,29.77,NNW,332,0.0,0.0,96,0.00,,,0.27,,2013-05-12 04:43:00,
2013-05-12 00:52:00,62.0,61.0,29.76,NNW,332,0.0,0.0,96,0.00,,,0.27,,2013-05-12 04:52:00,
2013-05-12 01:02:00,62.0,61.0,29.76,NNW,332,0.0,0.0,96,0.00,,,0.27,,2013-05-12 05:02:00,
2013-05-12 01:12:00,62.0,61.0,29.76,NNW,332,0.0,0.0,96,0.00,,,0.27,,2013-05-12 05:12:00,
2013-05-12 01:22:00,62.0,61.0,29.75,NW,321,0.0,0.0,96,0.00,,,0.27,,2013-05-12 05:22:00,
2013-05-12 01:32:00,62.0,61.0,29.75,NW,321,0.0,0.0,96,0.00,,,0.27,,2013-05-12 05:32:00,
2013-05-12 01:42:00,62.0,61.0,29.75,NW,321,0.0,0.0,96,0.00,,,0.27,,2013-05-12 05:42:00,
2013-05-12 01:52:00,62.0,61.0,29.75,NW,321,0.0,0.0,96,0.00,,,0.27,,2013-05-12 05:52:00,
2013-05-12 02:02:00,62.0,61.0,29.75,NW,321,0.0,0.0,96,0.00,,,0.27,,2013-05-12 06:02:00,
2013-05-12 02:11:00,62.0,61.0,29.75,NW,321,0.0,0.0,96,0.00,,,0.27,,2013-05-12 06:11:00,
2013-05-12 02:21:00,62.0,61.0,29.74,NW,321,0.0,0.0,96,0.00,,,0.27,,2013-05-12 06:21:00,
2013-05-12 02:32:00,62.0,61.0,29.74,NW,321,0.0,0.0,96,0.00,,,0.27,,2013-05-12 06:32:00,
2013-05-12 02:42:00,62.0,61.0,29.74,NW,321,0.0,0.0,96,0.00,,,0.27,,2013-05-12 06:42:00,
2013-05-12 02:52:00,62.0,61.0,29.72,NW,321,0.0,0.0,96,0.00,,,0.27,,2013-05-12 06:52:00,
2013-05-12 03:01:00,62.0,61.0,29.72,NW,321,0.0,0.0,96,0.00,,,0.27,,2013-05-12 07:01:00,
2013-05-12 03:11:00,62.0,61.0,29.72,NW,321,0.0,0.0,96,0.00,,,0.27,,2013-05-12 07:11:00,
2013-05-12 03:22:00,61.0,60.0,29.73,NW,321,0.0,0.0,97,0.00,,,0.27,,2013-05-12 07:22:00,
2013-05-12 03:32:00,61.0,60.0,29.73,NW,321,0.0,0.0,97,0.00,,,0.27,,2013-05-12 07:32:00,
2013-05-12 03:42:00,61.0,60.0,29.73,NW,321,0.0,0.0,97,0.00,,,0.27,,2013-05-12 07:42:00,
2013-05-12 03:52:00,61.0,60.0,29.71,NW,321,0.0,0.0,97,0.00,,,0.27,,2013-05-12 07:52:00,
2013-05-12 04:02:00,61.0,60.0,29.71,NW,321,0.0,0.0,97,0.00,,,0.27,,2013-05-12 08:02:00,
2013-05-12 04:11:00,61.0,60.0,29.71,NW,321,0.0,0.0,97,0.00,,,0.27,,2013-05-12 08:11:00,
2013-05-12 04:21:00,60.0,59.0,29.71,NW,321,0.0,0.0,96,0.00,,,0.27,,2013-05-12 08:21:00,
2013-05-12 04:32:00,60.0,59.0,29.71,NW,321,0.0,0.0,96,0.00,,,0.27,,2013-05-12 08:32:00,
2013-05-12 04:42:00,60.0,59.0,29.71,NW,321,0.0,0.0,96,0.00,,,0.27,,2013-05-12 08:42:00,
2013-05-12 04:53:00,60.0,59.0,29.70,NW,321,0.0,0.0,97,0.00,,,0.27,,2013-05-12 08:53:00,
2013-05-12 05:01:00,60.0,59.0,29.70,NW,321,0.0,0.0,97,0.00,,,0.27,,2013-05-12 09:01:00,
2013-05-12 05:11:00,60.0,59.0,29.70,NW,321,0.0,0.0,97,0.00,,,0.27,,2013-05-12 09:11:00,
2013-05-12 05:21:00,60.0,59.0,29.72,NW,321,0.0,0.0,97,0.00,,,0.27,,2013-05-12 09:21:00,
2013-05-12 05:33:00,60.0,59.0,29.72,NW,321,0.0,0.0,97,0.00,,,0.27,,2013-05-12 09:33:00,
2013-05-12 05:43:00,60.0,59.0,29.72,NW,321,0.0,0.0,97,0.00,,,0.27,,2013-05-12 09:43:00,
2013-05-12 05:53:00,61.0,60.0,29.71,NW,321,0.0,0.0,97,0.00,,,0.27,,2013-05-12 09:53:00,
2013-05-12 06:03:00,61.0,60.0,29.71,NW,321,0.0,0.0,97,0.00,,,0.27,,2013-05-12 10:03:00,
2013-05-12 06:12:00,61.0,60.0,29.71,NW,321,0.0,0.0,97,0.00,,,0.27,,2013-05-12 10:12:00,
2013-05-12 06:23:00,61.0,60.0,29.71,East,84,0.0,1.0,97,0.00,,,0.26,,2013-05-12 10:23:00,
2013-05-12 06:33:00,61.0,60.0,29.71,East,84,0.0,1.0,97,0.00,,,0.26,,2013-05-12 10:33:00,
2013-05-12 06:42:00,61.0,60.0,29.71,East,84,0.0,1.0,97,0.00,,,0.26,,2013-05-12 10:42:00,
2013-05-12 06:52:00,61.0,60.0,29.72,North,352,0.0,3.0,97,0.00,,,0.26,,2013-05-12 10:52:00,
2013-05-12 07:02:00,61.0,60.0,29.72,North,352,0.0,3.0,97,0.00,,,0.26,,2013-05-12 11:02:00,
2013-05-12 07:12:00,61.0,60.0,29.72,North,352,0.0,3.0,97,0.00,,,0.26,,2013-05-12 11:12:00,
2013-05-12 07:22:00,61.0,60.0,29.71,North,360,0.0,0.0,97,0.00,,,0.24,,2013-05-12 11:22:00,
2013-05-12 07:32:00,61.0,60.0,29.71,North,360,0.0,0.0,97,0.00,,,0.24,,2013-05-12 11:32:00,
2013-05-12 07:42:00,61.0,60.0,29.71,North,360,0.0,0.0,97,0.00,,,0.24,,2013-05-12 11:42:00,
2013-05-12 07:52:00,61.0,60.0,29.71,North,360,0.0,1.0,97,0.00,,,0.24,,2013-05-12 11:52:00,
2013-05-12 08:02:00,61.0,60.0,29.71,North,360,0.0,1.0,97,0.00,,,0.24,,2013-05-12 12:02:00,
2013-05-12 08:11:00,61.0,60.0,29.71,North,360,0.0,1.0,97,0.00,,,0.24,,2013-05-12 12:11:00,
2013-05-12 08:22:00,61.0,60.0,29.70,North,360,0.0,0.0,97,0.01,,,0.25,,2013-05-12 12:22:00,
2013-05-12 08:32:00,61.0,60.0,29.70,North,360,0.0,0.0,97,0.01,,,0.25,,2013-05-12 12:32:00,
2013-05-12 08:42:00,61.0,60.0,29.70,North,360,0.0,0.0,97,0.01,,,0.25,,2013-05-12 12:42:00,
2013-05-12 08:52:00,61.0,60.0,29.70,North,1,0.0,0.0,97,0.01,,,0.25,,2013-05-12 12:52:00,
2013-05-12 09:02:00,61.0,60.0,29.70,North,1,0.0,0.0,97,0.01,,,0.25,,2013-05-12 13:02:00,
2013-05-12 09:11:00,61.0,60.0,29.70,North,1,0.0,0.0,97,0.01,,,0.25,,2013-05-12 13:11:00,
2013-05-12 09:21:00,59.0,58.0,29.70,ENE,75,0.0,3.0,96,0.01,,,0.26,,2013-05-12 13:21:00,
2013-05-12 09:32:00,59.0,58.0,29.70,ENE,75,0.0,3.0,96,0.01,,,0.26,,2013-05-12 13:32:00,
2013-05-12 09:42:00,59.0,58.0,29.70,ENE,75,0.0,3.0,96,0.01,,,0.26,,2013-05-12 13:42:00,
2013-05-12 09:52:00,59.0,58.0,29.70,East,100,0.0,3.0,96,0.04,,,0.29,,2013-05-12 13:52:00,
2013-05-12 10:01:00,59.0,58.0,29.70,East,100,0.0,3.0,96,0.04,,,0.29,,2013-05-12 14:01:00,
2013-05-12 10:11:00,59.0,58.0,29.70,East,100,0.0,3.0,96,0.04,,,0.29,,2013-05-12 14:11:00,
2013-05-12 10:21:00,59.0,58.0,29.70,East,86,0.0,1.0,96,0.04,,,0.30,,2013-05-12 14:21:00,
2013-05-12 10:32:00,59.0,58.0,29.70,East,86,0.0,1.0,96,0.04,,,0.30,,2013-05-12 14:32:00,
2013-05-12 10:42:00,60.0,59.0,29.70,East,87,0.0,3.0,96,0.01,,,0.30,,2013-05-12 14:42:00,
2013-05-12 10:52:00,60.0,59.0,29.70,East,87,0.0,3.0,96,0.01,,,0.30,,2013-05-12 14:52:00,
2013-05-12 11:01:00,60.0,59.0,29.70,East,87,0.0,3.0,96,0.01,,,0.30,,2013-05-12 15:01:00,
2013-05-12 11:11:00,60.0,59.0,29.70,East,87,0.0,3.0,96,0.01,,,0.30,,2013-05-12 15:11:00,
2013-05-12 11:21:00,61.0,60.0,29.69,East,87,0.0,1.0,95,0.00,,,0.30,,2013-05-12 15:21:00,
2013-05-12 11:34:00,61.0,60.0,29.69,East,87,0.0,1.0,95,0.00,,,0.30,,2013-05-12 15:34:00,
2013-05-12 11:42:00,61.0,60.0,29.69,East,87,0.0,1.0,95,0.00,,,0.30,,2013-05-12 15:42:00,
2013-05-12 11:53:00,60.0,57.0,29.68,East,82,0.0,2.0,90,0.00,,,0.30,,2013-05-12 15:53:00,
2013-05-12 12:02:00,60.0,57.0,29.68,East,82,0.0,2.0,90,0.00,,,0.30,,2013-05-12 16:02:00,
2013-05-12 12:13:00,60.0,57.0,29.68,East,82,0.0,2.0,90,0.00,,,0.30,,2013-05-12 16:13:00,
2013-05-12 12:23:00,62.0,56.0,29.68,ENE,75,1.0,4.0,80,0.00,,,0.30,,2013-05-12 16:23:00,
2013-05-12 12:33:00,62.0,56.0,29.68,ENE,75,1.0,4.0,80,0.00,,,0.30,,2013-05-12 16:33:00,
2013-05-12 12:42:00,62.0,56.0,29.68,ENE,75,1.0,4.0,80,0.00,,,0.30,,2013-05-12 16:42:00,
2013-05-12 12:53:00,65.0,56.0,29.67,ESE,110,0.0,4.0,72,0.00,,,0.30,,2013-05-12 16:53:00,
2013-05-12 13:02:00,65.0,56.0,29.67,ESE,110,0.0,4.0,72,0.00,,,0.30,,2013-05-12 17:02:00,
2013-05-12 13:12:00,65.0,56.0,29.67,ESE,110,0.0,4.0,72,0.00,,,0.30,,2013-05-12 17:12:00,
2013-05-12 13:22:00,67.0,57.0,29.68,East,82,0.0,4.0,71,0.00,,,0.30,,2013-05-12 17:22:00,
2013-05-12 13:32:00,67.0,57.0,29.68,East,82,0.0,4.0,71,0.00,,,0.30,,2013-05-12 17:32:00,
2013-05-12 13:42:00,67.0,57.0,29.68,East,82,0.0,4.0,71,0.00,,,0.30,,2013-05-12 17:42:00,
2013-05-12 13:53:00,67.0,55.0,29.67,NNE,32,1.0,6.0,66,0.00,,,0.30,,2013-05-12 17:53:00,
2013-05-12 14:01:00,67.0,55.0,29.67,NNE,32,1.0,6.0,66,0.00,,,0.30,,2013-05-12 18:01:00,
2013-05-12 14:12:00,67.0,55.0,29.67,NNE,32,1.0,6.0,66,0.00,,,0.30,,2013-05-12 18:12:00,
2013-05-12 14:22:00,71.0,54.0,29.66,NE,55,1.0,7.0,55,0.00,,,0.30,,2013-05-12 18:22:00,
2013-05-12 14:32:00,71.0,54.0,29.66,NE,55,1.0,7.0,55,0.00,,,0.30,,2013-05-12 18:32:00,
2013-05-12 14:42:00,71.0,54.0,29.66,NE,55,1.0,7.0,55,0.00,,,0.30,,2013-05-12 18:42:00,
2013-05-12 14:52:00,72.0,53.0,29.65,NNE,18,3.0,7.0,52,0.00,,,0.30,,2013-05-12 18:52:00,
2013-05-12 15:01:00,72.0,53.0,29.65,NNE,18,3.0,7.0,52,0.00,,,0.30,,2013-05-12 19:01:00,
2013-05-12 15:11:00,72.0,53.0,29.65,NNE,18,3.0,7.0,52,0.00,,,0.30,,2013-05-12 19:11:00,
2013-05-12 15:22:00,73.0,52.0,29.64,NNE,15,1.0,6.0,48,0.00,,,0.30,,2013-05-12 19:22:00,
2013-05-12 15:32:00,73.0,52.0,29.64,NNE,15,1.0,6.0,48,0.00,,,0.30,,2013-05-12 19:32:00,
2013-05-12 15:42:00,73.0,52.0,29.64,NNE,15,1.0,6.0,48,0.00,,,0.30,,2013-05-12 19:42:00,
2013-05-12 15:52:00,70.0,52.0,29.64,North,352,1.0,7.0,53,0.00,,,0.30,,2013-05-12 19:52:00,
2013-05-12 16:02:00,70.0,52.0,29.64,North,352,1.0,7.0,53,0.00,,,0.30,,2013-05-12 20:02:00,
2013-05-12 16:11:00,70.0,52.0,29.64,North,352,1.0,7.0,53,0.00,,,0.30,,2013-05-12 20:11:00,
2013-05-12 16:22:00,70.0,50.0,29.65,SE,135,3.0,8.0,50,0.00,,,0.30,,2013-05-12 20:22:00,
2013-05-12 16:32:00,70.0,50.0,29.65,SE,135,3.0,8.0,50,0.00,,,0.30,,2013-05-12 20:32:00,
2013-05-12 16:42:00,70.0,50.0,29.65,SE,135,3.0,8.0,50,0.00,,,0.30,,2013-05-12 20:42:00,
2013-05-12 16:52:00,68.0,50.0,29.65,ENE,76,1.0,6.0,52,0.00,,,0.30,,2013-05-12 20:52:00,
2013-05-12 17:01:00,68.0,50.0,29.65,ENE,76,1.0,6.0,52,0.00,,,0.30,,2013-05-12 21:01:00,
2013-05-12 17:11:00,68.0,50.0,29.65,ENE,76,1.0,6.0,52,0.00,,,0.30,,2013-05-12 21:11:00,
2013-05-12 17:21:00,65.0,48.0,29.68,ENE,77,5.0,13.0,55,0.00,,,0.30,,2013-05-12 21:21:00,
2013-05-12 17:33:00,65.0,48.0,29.68,ENE,77,5.0,13.0,55,0.00,,,0.30,,2013-05-12 21:33:00,
2013-05-12 17:42:00,65.0,48.0,29.68,ENE,77,5.0,13.0,55,0.00,,,0.30,,2013-05-12 21:42:00,
2013-05-12 17:53:00,63.0,44.0,29.70,ENE,60,5.0,18.0,50,0.00,,,0.30,,2013-05-12 21:53:00,
2013-05-12 18:02:00,63.0,44.0,29.70,ENE,60,5.0,18.0,50,0.00,,,0.30,,2013-05-12 22:02:00,
2013-05-12 18:12:00,63.0,44.0,29.70,ENE,60,5.0,18.0,50,0.00,,,0.30,,2013-05-12 22:12:00,
2013-05-12 18:23:00,60.0,41.0,29.71,SE,146,3.0,12.0,50,0.00,,,0.30,,2013-05-12 22:23:00,
2013-05-12 18:33:00,60.0,41.0,29.71,SE,146,3.0,12.0,50,0.00,,,0.30,,2013-05-12 22:33:00,
2013-05-12 18:42:00,60.0,41.0,29.71,SE,146,3.0,12.0,50,0.00,,,0.30,,2013-05-12 22:42:00,
2013-05-12 18:52:00,60.0,39.0,29.73,ENE,72,3.0,9.0,46,0.00,,,0.30,,2013-05-12 22:52:00,
2013-05-12 19:02:00,60.0,39.0,29.73,ENE,72,3.0,9.0,46,0.00,,,0.30,,2013-05-12 23:02:00,
2013-05-12 19:12:00,60.0,39.0,29.73,ENE,72,3.0,9.0,46,0.00,,,0.30,,2013-05-12 23:12:00,
2013-05-12 19:22:00,59.0,38.0,29.75,East,98,3.0,13.0,46,0.00,,,0.27,,2013-05-12 23:22:00,
2013-05-12 19:32:00,59.0,38.0,29.75,East,98,3.0,13.0,46,0.00,,,0.27,,2013-05-12 23:32:00,
2013-05-12 19:42:00,59.0,38.0,29.75,East,98,3.0,13.0,46,0.00,,,0.27,,2013-05-12 23:42:00,
2013-05-12 19:52:00,58.0,39.0,29.77,ENE,69,1.0,5.0,49,0.00,,,0.27,,2013-05-12 23:52:00,
2013-05-12 20:01:00,58.0,39.0,29.77,ENE,69,1.0,5.0,49,0.00,,,0.27,,2013-05-13 00:01:00,
2013-05-12 20:11:00,58.0,39.0,29.77,ENE,69,1.0,5.0,49,0.00,,,0.27,,2013-05-13 00:11:00,
2013-05-12 20:22:00,58.0,34.0,29.79,East,98,2.0,11.0,41,0.00,,,0.07,,2013-05-13 00:22:00,
2013-05-12 20:32:00,58.0,34.0,29.79,East,98,2.0,11.0,41,0.00,,,0.07,,2013-05-13 00:32:00,
2013-05-12 20:42:00,58.0,34.0,29.79,East,98,2.0,11.0,41,0.00,,,0.07,,2013-05-13 00:42:00,
2013-05-12 20:52:00,56.0,33.0,29.80,ENE,65,0.0,5.0,41,0.00,,,0.07,,2013-05-13 00:52:00,
2013-05-12 21:01:00,56.0,33.0,29.80,ENE,65,0.0,5.0,41,0.00,,,0.07,,2013-05-13 01:01:00,
2013-05-12 21:11:00,56.0,33.0,29.80,ENE,65,0.0,5.0,41,0.00,,,0.07,,2013-05-13 01:11:00,
2013-05-12 21:22:00,54.0,34.0,29.81,ESE,113,0.0,2.0,47,0.00,,,0.06,,2013-05-13 01:22:00,
2013-05-12 21:32:00,54.0,34.0,29.81,ESE,113,0.0,2.0,47,0.00,,,0.06,,2013-05-13 01:32:00,
2013-05-12 21:42:00,54.0,34.0,29.81,ESE,113,0.0,2.0,47,0.00,,,0.06,,2013-05-13 01:42:00,
2013-05-12 21:52:00,52.0,35.0,29.83,ESE,113,0.0,0.0,53,0.00,,,0.06,,2013-05-13 01:52:00,
2013-05-12 22:02:00,52.0,35.0,29.83,ESE,113,0.0,0.0,53,0.00,,,0.06,,2013-05-13 02:02:00,
2013-05-12 22:11:00,52.0,35.0,29.83,ESE,113,0.0,0.0,53,0.00,,,0.06,,2013-05-13 02:11:00,
2013-05-12 22:21:00,52.0,32.0,29.83,NE,47,0.0,4.0,47,0.00,,,0.06,,2013-05-13 02:21:00,
2013-05-12 22:32:00,52.0,32.0,29.83,NE,47,0.0,4.0,47,0.00,,,0.06,,2013-05-13 02:32:00,
2013-05-12 22:42:00,52.0,32.0,29.83,NE,47,0.0,4.0,47,0.00,,,0.06,,2013-05-13 02:42:00,
2013-05-12 22:52:00,52.0,33.0,29.85,East,87,1.0,6.0,48,0.00,,,0.06,,2013-05-13 02:52:00,
2013-05-12 23:02:00,52.0,33.0,29.85,East,87,1.0,6.0,48,0.00,,,0.06,,2013-05-13 03:02:00,
2013-05-12 23:11:00,52.0,33.0,29.85,East,87,1.0,6.0,48,0.00,,,0.06,,2013-05-13 03:11:00,
2013-05-12 23:21:00,51.0,34.0,29.86,ESE,115,0.0,3.0,51,0.00,,,0.06,,2013-05-13 03:21:00,
2013-05-12 23:32:00,51.0,34.0,29.86,ESE,115,0.0,3.0,51,0.00,,,0.06,,2013-05-13 03:32:00,
2013-05-12 23:33:00,50.0,34.0,29.87,ENE,66,0.0,2.0,53,0.00,,,0.06,,2013-05-13 03:33:00,
2013-05-12 23:42:00,51.0,34.0,29.86,ESE,115,0.0,3.0,51,0.00,,,0.06,,2013-05-13 03:42:00,
2013-05-12 23:53:00,50.0,34.0,29.87,ENE,66,0.0,2.0,53,0.00,,,0.06,,2013-05-13 03:53:00,